SCP
0 0 1 1 1 1 0 0 0 0 0 0 0 0 0 0 0 0 0 0 0 0 0 0 0 0 0 0 0 0 0 0 0 0 0 0 0 0 0 0 0 0 0
0 0 1 1 1 1 0 0 0 0 0 0 0 0 0 0 0 0 0 0 0 0 0 0 0 0 0 0 0 0 0 0 0 0 0 0 0 0 0 0 0 0 0
0 0 1 1 1 0 0 0 0 0 0 0 0 0 0 0 0 0 0 0 0 0 0 0 0 0 0 0 0 0 0 0 0 0 0 0 0 0 0 0 0 0 0
0 0 0 1 1 1 0 0 0 0 0 0 0 0 0 0 0 0 0 0 0 0 0 0 0 0 0 0 0 0 0 0 0 0 0 0 0 0 0 0 0 0 0
0 0 0 1 1 1 0 0 0 0 0 0 0 0 0 0 0 0 0 0 0 0 0 0 0 0 0 0 0 0 0 0 0 0 0 0 0 0 0 0 0 0 0
0 0 0 1 1 1 1 0 0 0 0 0 0 0 0 0 0 0 0 0 0 0 0 0 0 0 0 0 0 0 0 0 0 0 0 0 0 0 0 0 0 0 0
0 0 0 1 1 1 1 0 0 0 0 0 0 0 0 0 0 0 0 0 0 0 0 0 0 0 0 0 0 0 0 0 0 0 0 0 0 0 0 0 0 0 0
0 0 0 0 1 1 1 1 0 0 0 0 0 0 0 0 0 0 0 0 0 0 0 0 0 0 0 0 0 0 0 0 0 0 0 0 0 0 0 0 0 0 0
0 0 0 0 0 0 0 0 0 0 0 0 0 0 0 0 0 0 0 0 0 0 0 0 0 0 0 0 0 0 0 0 0 0 0 0 0 0 0 0 0 0 0
0 0 0 0 0 0 0 0 0 0 0 0 0 0 0 0 0 0 0 0 0 0 0 0 0 0 0 0 0 0 0 0 0 0 0 0 0 0 0 0 0 0 0
0 0 0 0 0 0 0 0 0 0 0 0 0 0 0 0 0 0 0 0 0 0 0 0 0 0 0 0 0 0 0 0 0 0 0 0 0 0 0 0 0 0 0
0 0 0 0 0 0 0 0 0 0 0 0 0 0 0 0 0 0 0 0 0 0 0 0 0 0 0 0 0 0 0 0 0 0 0 0 0 0 0 0 0 0 0
0 0 0 0 0 0 0 0 0 0 0 0 0 0 0 0 0 0 0 0 0 0 0 0 0 0 0 0 0 0 0 0 0 0 0 0 0 0 0 0 0 0 0
0 0 0 0 0 0 0 0 0 0 0 0 0 0 0 0 0 0 0 0 0 0 0 0 0 0 0 0 0 0 0 0 0 0 0 0 0 0 0 0 0 0 0
0 0 0 0 0 0 0 0 0 0 0 0 0 0 0 0 0 0 0 0 0 0 0 0 0 0 0 0 0 0 0 0 0 0 0 0 0 0 0 0 0 0 0
0 0 0 0 0 0 0 0 0 0 0 0 0 0 0 0 0 0 0 0 0 0 0 0 0 0 0 0 0 0 0 0 0 0 0 0 0 0 0 0 0 0 0
0 0 0 0 0 0 0 0 0 0 0 0 0 0 0 0 0 0 0 0 0 0 0 0 0 0 0 0 0 0 0 0 0 0 0 0 0 0 0 0 0 0 0
1 1 0 0 0 0 0 0 0 0 0 0 0 0 0 0 0 0 0 0 0 0 0 0 0 0 0 0 0 0 0 0 0 0 0 0 0 0 0 0 0 0 0
1 1 1 1 0 0 0 0 0 0 0 0 0 0 0 0 0 0 0 0 0 0 0 0 0 0 0 0 0 0 0 0 0 0 0 0 0 0 0 0 0 0 0
1 1 1 1 1 1 1 1 0 0 0 0 0 0 0 0 0 0 0 0 0 0 0 0 0 0 0 0 0 0 0 0 0 0 0 0 0 0 0 0 0 0 0
1 1 1 1 1 1 1 1 0 0 0 0 0 0 0 0 0 0 0 0 0 0 0 0 0 0 0 0 0 0 0 0 0 0 0 0 0 0 0 0 0 0 0
1 1 1 1 1 1 1 1 1 0 0 0 0 0 0 0 0 0 0 0 0 0 0 0 0 0 0 0 0 0 0 0 0 0 0 0 0 0 0 0 0 0 0
1 1 1 1 1 1 1 1 1 1 0 0 0 0 0 0 0 0 0 0 0 0 0 0 0 0 0 0 0 0 0 0 0 0 0 0 0 0 0 0 0 0 0
1 1 1 1 1 1 1 1 1 1 0 0 0 0 0 0 0 0 0 0 0 0 0 0 0 0 0 0 0 0 0 0 0 0 0 0 0 0 0 0 0 0 0
1 1 1 1 1 1 1 1 1 1 0 0 0 0 0 0 0 0 0 0 0 0 0 0 0 0 0 0 0 0 0 0 0 0 0 0 0 0 0 0 0 0 0
1 1 1 1 1 1 1 1 1 1 0 0 0 0 0 0 0 0 0 0 0 0 0 0 0 0 0 0 0 0 0 0 0 0 0 0 0 0 0 0 0 0 0
Wind_Speed
7 8 13 14 15 14 14 13 13 13 12 12 12 13 13 13 13 13 12 12 12 12 12 12 12 13 13 13 13 12 12 11 11 12 12 12 12 12 13 13 13 10 14
11 10 14 14 15 15 14 13 13 12 12 12 12 12 13 12 12 12 12 12 12 12 12 12 12 12 12 12 11 11 11 11 11 11 12 11 12 12 12 13 13 9 13
13 10 13 15 15 15 14 14 13 12 12 12 12 12 12 12 12 12 11 11 11 11 12 12 12 12 11 11 10 10 10 11 10 10 10 6 8 12 12 13 13 13 13
14 10 12 15 15 15 15 14 13 13 13 13 13 12 12 12 11 11 11 10 10 11 11 12 11 10 10 9 9 9 10 9 9 9 5 5 6 12 12 13 13 13 13
12 9 12 17 16 15 15 14 13 13 13 13 12 12 11 11 11 10 10 10 10 10 10 11 10 9 8 8 9 9 9 8 8 6 4 4 4 10 13 13 13 13 13
11 10 12 17 17 16 15 14 14 13 12 12 12 11 11 10 10 10 10 10 9 9 9 9 8 8 7 7 7 8 8 8 6 4 4 4 4 10 13 14 13 13 12
12 9 11 16 17 16 15 15 14 13 12 11 11 10 10 9 9 9 9 9 9 9 8 8 7 7 6 6 6 6 7 7 4 4 3 3 4 11 13 13 13 13 12
14 10 10 16 17 16 15 15 14 12 11 11 10 9 9 8 8 8 8 8 8 8 7 7 6 6 5 5 5 6 7 6 5 4 3 3 6 10 12 13 13 12 11
12 10 8 9 11 14 15 14 13 12 11 10 9 9 8 8 8 8 7 7 7 6 6 5 5 5 4 4 4 5 5 5 4 3 4 3 7 9 11 12 12 12 11
9 9 8 7 7 7 8 13 13 12 11 10 9 9 8 8 7 7 6 6 6 5 5 4 3 4 4 3 3 3 4 4 3 3 3 4 9 10 11 11 11 11 11
9 7 7 7 6 6 6 9 10 11 10 9 7 8 6 3 3 3 5 6 6 5 4 3 3 2 3 2 3 3 2 2 3 2 3 7 10 11 11 12 12 12 11
10 8 7 8 7 6 6 5 4 4 4 4 3 3 2 2 2 3 4 5 5 4 3 3 3 2 1 1 2 3 1 2 2 2 3 8 10 10 11 12 12 12 11
11 10 8 8 7 6 4 5 3 2 2 2 3 3 2 2 1 1 1 2 2 2 1 2 1 1 1 1 1 1 2 1 2 2 4 9 10 11 12 12 12 12 11
11 10 9 8 7 6 5 4 4 3 3 2 3 3 3 2 2 2 1 1 1 1 1 1 1 1 1 1 2 2 2 2 1 2 4 9 10 11 12 12 11 10 10
10 10 9 9 8 7 6 4 5 4 4 3 3 3 4 3 2 2 1 1 2 1 1 1 1 1 1 1 2 3 2 2 2 2 2 8 10 10 11 12 11 11 10
9 9 9 8 8 7 6 4 4 4 3 3 3 4 4 3 3 2 2 1 1 2 2 2 2 2 1 1 1 2 3 3 3 3 3 5 9 10 10 11 12 11 11
9 9 9 9 7 7 6 5 4 3 3 3 3 3 4 3 3 3 2 2 1 1 2 1 1 1 1 1 1 2 2 3 3 3 3 3 3 7 10 10 10 10 11
8 8 8 8 7 6 5 5 4 3 3 3 3 3 4 4 4 3 2 2 1 1 1 1 1 1 1 1 1 1 1 2 3 3 3 3 3 4 6 9 9 10 11
9 9 7 6 7 6 5 4 4 4 3 3 3 2 3 4 4 3 2 2 2 1 1 1 1 1 1 1 1 1 1 2 2 3 3 4 4 3 3 6 9 10 11
8 8 7 5 5 5 4 3 3 3 2 2 2 2 3 3 3 3 2 2 2 2 1 1 1 1 1 1 1 0 1 1 1 2 4 3 3 4 4 4 4 6 9
7 7 6 6 5 4 4 4 3 3 2 2 2 3 3 3 3 3 2 2 2 2 2 2 1 1 0 0 1 2 2 1 1 2 2 2 3 4 4 3 3 2 3
8 7 6 5 5 5 4 3 3 3 2 2 1 2 3 3 3 4 3 2 2 2 1 1 2 1 0 1 2 1 2 3 3 2 1 2 2 2 3 4 3 3 2
8 7 7 6 5 4 4 3 3 2 2 1 1 1 2 3 3 2 3 2 2 3 2 2 2 3 1 0 1 3 2 2 2 2 1 1 1 1 2 2 4 4 4
7 6 6 5 5 3 4 4 5 3 2 2 2 1 1 2 2 2 2 2 2 2 2 2 2 2 3 1 0 1 2 3 2 1 2 2 1 1 2 2 3 3 4
7 6 6 6 6 4 4 4 4 3 2 1 1 2 1 1 1 2 3 2 2 1 2 2 1 2 2 2 1 1 0 0 1 2 1 3 2 2 1 2 1 2 3
5 6 6 6 5 5 5 5 4 4 3 3 2 2 1 0 0 1 2 2 2 2 2 2 2 2 2 2 1 1 2 1 1 2 2 2 2 2 2 1 1 2 2
Wind_Direction
154 158 141 130 124 119 116 112 107 105 102 101 101 101 100 100 102 102 103 105 106 108 109 110 112 114 115 119 124 128 131 132 133 135 136 135 136 139 138 135 134 128 128
152 153 140 132 127 123 120 116 110 108 105 105 106 106 104 104 105 105 105 105 105 107 108 110 114 117 120 121 126 129 131 131 133 135 134 136 138 136 135 134 133 131 130
145 147 140 134 130 126 123 119 115 112 108 106 109 109 108 106 107 108 107 107 109 110 109 110 114 117 119 120 122 125 125 128 135 137 134 128 135 137 137 137 133 132 131
143 144 141 137 133 129 127 124 120 116 112 108 109 110 110 109 109 111 111 111 112 114 115 115 116 119 120 121 123 123 124 128 131 133 130 130 137 142 143 140 137 138 136
141 142 143 139 136 133 130 128 125 122 118 115 114 113 112 112 111 114 114 114 116 117 118 120 120 121 122 122 124 124 125 125 126 116 110 124 134 147 147 144 140 137 136
142 144 145 141 139 136 134 131 128 127 125 121 119 118 117 116 116 116 117 118 120 120 121 123 124 124 122 120 123 125 126 120 116 106 107 121 140 152 149 145 142 141 140
144 146 147 144 142 141 138 136 133 132 130 127 126 125 122 121 121 121 121 121 123 124 125 127 128 130 128 129 129 133 129 122 110 117 125 130 150 156 152 149 148 147 146
145 145 145 147 146 145 143 141 140 138 136 135 133 132 130 129 127 126 127 126 125 127 128 132 135 135 133 133 133 138 139 134 119 127 128 133 149 158 157 154 152 153 154
141 142 144 148 149 150 148 146 145 143 142 141 140 138 136 137 137 135 134 134 132 130 130 135 143 140 136 137 143 150 144 140 126 134 147 144 155 159 157 156 158 160 161
138 143 146 145 146 150 150 151 151 149 149 149 149 148 147 146 144 143 142 146 145 142 137 135 146 150 146 143 148 151 150 144 134 153 156 160 167 170 164 163 162 162 162
143 149 151 148 145 146 152 158 155 155 155 155 158 159 153 148 148 154 160 160 159 156 151 151 148 149 148 143 147 146 144 141 151 161 162 173 177 179 176 172 171 170 168
156 161 158 156 155 156 160 148 151 153 153 152 153 153 145 152 173 172 174 173 166 163 164 167 172 167 139 145 155 150 151 158 167 174 181 182 186 186 185 180 178 177 175
161 164 163 162 159 160 152 148 155 154 151 154 163 156 144 144 152 161 158 170 167 168 168 175 187 188 178 177 164 154 174 186 177 177 184 189 191 192 191 185 183 182 181
156 162 163 160 159 161 153 159 162 159 159 165 171 160 146 140 146 161 166 167 161 169 172 188 205 197 200 184 179 175 186 188 169 170 188 191 195 194 192 188 184 186 188
156 158 160 159 160 160 155 167 166 168 170 174 170 169 154 153 163 174 173 176 182 179 179 197 215 214 198 183 173 167 169 169 176 183 189 191 192 194 194 191 191 192 197
161 161 155 155 160 157 159 164 162 168 172 169 169 170 162 161 164 163 175 189 196 197 191 196 206 192 185 167 161 171 164 175 182 186 193 194 192 192 195 197 199 198 200
160 157 157 155 155 156 158 162 157 162 161 163 170 169 166 164 161 157 169 190 198 184 170 167 160 132 157 149 161 189 171 188 185 186 190 191 193 197 199 203 205 206 206
149 152 158 153 150 156 159 159 154 156 159 165 167 166 167 168 163 151 161 190 183 149 146 147 126 114 130 160 190 209 196 203 203 192 195 198 196 203 208 209 210 212 213
148 147 148 146 152 160 157 155 152 154 160 167 166 168 176 174 165 152 165 184 153 131 143 169 133 143 158 201 212 207 204 200 202 195 198 201 202 204 209 215 215 216 218
142 143 144 144 153 156 146 135 129 137 156 161 164 171 172 175 163 153 163 172 146 131 135 139 136 119 165 191 223 288 275 221 208 208 210 205 207 212 209 209 213 226 224
133 140 142 145 153 150 150 156 152 161 167 165 166 162 164 172 169 166 172 166 152 156 183 169 148 96 350 100 71 358 335 311 241 226 221 204 213 216 204 202 199 206 225
144 145 144 151 154 160 163 168 161 153 164 178 165 153 166 171 171 173 169 175 173 167 170 167 150 151 259 112 128 105 354 338 323 269 229 203 208 200 198 198 184 189 201
151 153 153 153 148 153 145 124 108 91 89 92 88 155 192 177 167 163 163 162 173 169 185 194 172 161 176 270 138 145 151 227 292 319 305 207 195 193 212 200 194 196 196
160 156 147 139 130 128 127 137 140 143 155 184 176 171 191 176 162 158 156 158 168 169 181 200 177 165 153 186 266 176 168 165 161 306 323 314 291 215 222 218 209 205 200
155 152 144 132 131 136 137 142 142 140 149 131 117 120 135 156 161 159 153 149 157 168 172 167 156 157 162 169 181 181 132 109 138 150 275 311 327 295 249 229 215 211 204
139 138 136 135 137 146 150 150 148 153 146 130 144 162 176 187 192 175 158 161 167 174 178 172 163 158 172 169 176 170 161 161 188 167 200 251 276 287 282 263 218 215 211